Location: Warszawa
(52.2500°N, 21.0000°E)
Time: 19:27:57
(UTC+02:00)

Vanguard 2 - Pass Details

Date: 31 January 2023
Orbit: 553 x 2927 km, 32.9° (Epoch: 27 March)

Event Time Altitude Azimuth Distance (km) Brightness Sun altitude
Exits shadow 03:38:46 25° 200° (SSW) 4,138 10.9 -33.5°
Drops below altitude 10° 03:47:19 10° 161° (SSE) 4,711 11.6 -32.3°
Sets 03:51:22 0° 150° (SSE) 5,367 12.0 -31.7°
